�������l�o���
Date,Time,MP-1(��Sv/h),MP-2(��Sv/h),MP-3(��Sv/h),MP-4(��Sv/h),MP-5(��Sv/h),MP-6(��Sv/h),MP-7(��Sv/h),MP-8(��Sv/h),����,����(m/s),���J
2022/09/27,00:00,0.567,0.812,0.524,1.005,0.709,0.336,0.583,0.551,�k�k��,2.3,��
2022/09/27,00:10,0.567,0.813,0.523,1.006,0.710,0.337,0.585,0.552,�k�k��,2.3,��
2022/09/27,00:20,0.567,0.813,0.523,1.006,0.713,0.338,0.585,0.552,�k�k��,2.9,��
2022/09/27,00:30,0.566,0.812,0.523,1.006,0.710,0.336,0.586,0.553,�k�k��,3.0,��
2022/09/27,00:40,0.568,0.812,0.523,1.007,0.710,0.336,0.585,0.552,�k,3.1,��
2022/09/27,00:50,0.567,0.813,0.522,1.006,0.711,0.336,0.585,0.552,�k,3.4,��
2022/09/27,01:00,0.567,0.811,0.524,1.010,0.711,0.336,0.586,0.551,�k,2.5,��
2022/09/27,01:10,0.567,0.812,0.524,1.007,0.710,0.336,0.586,0.551,�k�k��,3.0,��
2022/09/27,01:20,0.568,0.812,0.523,1.008,0.710,0.335,0.586,0.551,�k�k��,2.5,��
2022/09/27,01:30,0.567,0.812,0.525,1.009,0.709,0.336,0.586,0.551,�k�k��,2.6,��
2022/09/27,01:40,0.567,0.811,0.524,1.007,0.710,0.336,0.585,0.553,�k�k��,2.0,��
2022/09/27,01:50,0.567,0.811,0.522,1.007,0.711,0.335,0.585,0.551,�k�k��,2.0,��
2022/09/27,02:00,0.566,0.810,0.523,1.008,0.710,0.338,0.586,0.551,�k�k��,2.2,��
2022/09/27,02:10,0.566,0.812,0.523,1.006,0.709,0.337,0.587,0.553,�k�k��,2.2,��
2022/09/27,02:20,0.567,0.811,0.523,1.008,0.710,0.335,0.586,0.551,�k�k��,2.9,��
2022/09/27,02:30,0.567,0.811,0.524,1.009,0.711,0.336,0.584,0.553,�k�k��,2.6,��
2022/09/27,02:40,0.568,0.809,0.523,1.006,0.711,0.336,0.587,0.551,�k�k��,3.3,��
2022/09/27,02:50,0.569,0.811,0.523,1.008,0.709,0.337,0.586,0.551,�k�k��,3.2,��
2022/09/27,03:00,0.565,0.811,0.524,1.008,0.709,0.337,0.586,0.552,�k,3.0,��
2022/09/27,03:10,0.566,0.810,0.524,1.008,0.711,0.337,0.586,0.552,�k,3.1,��
2022/09/27,03:20,0.567,0.810,0.523,1.006,0.709,0.337,0.585,0.552,�k,2.6,��
2022/09/27,03:30,0.567,0.812,0.526,1.007,0.709,0.337,0.585,0.551,�k�k��,2.5,��
2022/09/27,03:40,0.568,0.810,0.523,1.007,0.708,0.336,0.585,0.551,�k�k��,3.1,��
2022/09/27,03:50,0.565,0.811,0.523,1.006,0.708,0.336,0.585,0.551,�k,3.0,��
2022/09/27,04:00,0.567,0.809,0.525,1.006,0.709,0.336,0.587,0.551,�k,3.0,��
2022/09/27,04:10,0.567,0.810,0.524,1.008,0.711,0.336,0.586,0.552,�k�k��,2.5,��
2022/09/27,04:20,0.566,0.811,0.523,1.008,0.708,0.337,0.584,0.551,�k�k��,2.3,��
2022/09/27,04:30,0.568,0.812,0.522,1.009,0.710,0.336,0.586,0.551,�k�k��,2.2,��
2022/09/27,04:40,0.566,0.812,0.524,1.008,0.707,0.336,0.585,0.552,�k�k��,1.5,��
2022/09/27,04:50,0.566,0.811,0.523,1.009,0.710,0.336,0.584,0.553,�k�k��,2.0,��
2022/09/27,05:00,0.567,0.810,0.523,1.009,0.710,0.336,0.585,0.553,�k�k��,2.0,��
2022/09/27,05:10,0.566,0.811,0.524,1.008,0.708,0.336,0.585,0.552,�k�k��,1.9,��
2022/09/27,05:20,0.568,0.810,0.523,1.009,0.708,0.336,0.586,0.550,�k�k��,1.5,��
2022/09/27,05:30,0.566,0.810,0.522,1.007,0.711,0.336,0.584,0.552,�k�k��,2.0,��
2022/09/27,05:40,0.567,0.810,0.522,1.007,0.708,0.336,0.584,0.553,�k�k��,2.2,��
2022/09/27,05:50,0.567,0.810,0.524,1.008,0.711,0.336,0.585,0.553,�k�k��,1.5,��
2022/09/27,06:00,0.566,0.810,0.524,1.010,0.710,0.336,0.587,0.552,�k�k��,1.4,��
2022/09/27,06:10,0.567,0.811,0.523,1.009,0.709,0.336,0.584,0.551,�k�k��,1.1,��
2022/09/27,06:20,0.567,0.811,0.523,1.008,0.709,0.337,0.585,0.550,�k,0.9,��
2022/09/27,06:30,0.566,0.811,0.523,1.008,0.709,0.336,0.585,0.551,�k�k��,0.9,��
2022/09/27,06:40,0.565,0.811,0.524,1.007,0.709,0.336,0.585,0.551,�k,1.1,��
2022/09/27,06:50,0.566,0.810,0.524,1.009,0.711,0.337,0.586,0.551,�k�k��,0.9,��
2022/09/27,07:00,0.566,0.812,0.524,1.008,0.710,0.337,0.584,0.551,�k��,1.5,��
2022/09/27,07:10,0.566,0.811,0.524,1.007,0.711,0.336,0.585,0.552,�k�k��,1.9,��
2022/09/27,07:20,0.567,0.813,0.526,1.008,0.710,0.336,0.584,0.552,�k,1.7,��
2022/09/27,07:30,0.568,0.810,0.525,1.007,0.710,0.337,0.585,0.552,�k�k��,2.0,��
2022/09/27,07:40,0.568,0.812,0.524,1.007,0.709,0.335,0.584,0.553,�k�k��,2.3,��
2022/09/27,07:50,0.567,0.811,0.524,1.008,0.710,0.335,0.585,0.553,�k,2.3,��
2022/09/27,08:00,0.567,0.810,0.523,1.008,0.711,0.335,0.583,0.553,�k�k��,2.0,��
2022/09/27,08:10,0.566,0.810,0.524,1.008,0.708,0.335,0.584,0.554,�k,1.5,��
2022/09/27,08:20,0.559,0.808,0.523,1.007,0.712,0.334,0.584,0.553,�k�k��,3.3,��
2022/09/27,08:30,0.557,0.808,0.524,1.006,0.710,0.334,0.585,0.553,�k��,2.8,��
2022/09/27,08:40,0.557,0.807,0.524,1.008,0.708,0.334,0.583,0.552,�k�k��,2.9,��
2022/09/27,08:50,0.559,0.808,0.525,1.008,0.709,0.334,0.584,0.551,�k�k��,2.6,��
2022/09/27,09:00,0.560,0.810,0.526,1.007,0.710,0.333,0.585,0.550,�k�k��,3.5,��
2022/09/27,09:10,0.561,0.808,0.524,1.010,0.709,0.334,0.584,0.551,�k�k��,4.2,��
2022/09/27,09:20,0.562,0.808,0.523,1.008,0.709,0.336,0.584,0.551,�k�k��,3.3,��
2022/09/27,09:30,0.562,0.810,0.522,1.012,0.710,0.335,0.586,0.551,�k��,3.7,��
2022/09/27,09:40,0.562,0.809,0.523,1.009,0.709,0.336,0.585,0.551,�k��,3.1,��
2022/09/27,09:50,0.561,0.808,0.523,1.009,0.708,0.336,0.585,0.550,�k�k��,3.5,��
2022/09/27,10:00,0.563,0.807,0.524,1.008,0.710,0.335,0.586,0.549,�k��,3.7,��
2022/09/27,10:10,0.562,0.811,0.523,1.006,0.710,0.336,0.585,0.552,�k�k��,4.2,��
2022/09/27,10:20,0.563,0.810,0.522,1.010,0.711,0.334,0.586,0.552,�k��,3.5,��
2022/09/27,10:30,0.562,0.810,0.523,1.010,0.710,0.336,0.583,0.552,�k�k��,3.8,��
2022/09/27,10:40,0.562,0.812,0.525,1.008,0.712,0.335,0.585,0.551,�k��,3.4,��
2022/09/27,10:50,0.562,0.811,0.526,1.010,0.711,0.334,0.587,0.550,�k��,3.5,��
2022/09/27,11:00,0.561,0.813,0.523,1.009,0.711,0.336,0.586,0.552,�k��,3.6,��
2022/09/27,11:10,0.561,0.813,0.523,1.008,0.711,0.336,0.585,0.552,�k�k��,4.0,��
2022/09/27,11:20,0.560,0.814,0.525,1.008,0.712,0.336,0.585,0.553,�k�k��,4.0,��
2022/09/27,11:30,0.561,0.815,0.525,1.008,0.709,0.336,0.586,0.553,�k��,3.6,��
2022/09/27,11:40,0.562,0.814,0.526,1.010,0.712,0.335,0.586,0.551,�k��,3.8,��
2022/09/27,11:50,0.561,0.815,0.527,1.008,0.713,0.335,0.586,0.551,�k��,3.9,��
2022/09/27,12:00,0.560,0.816,0.525,1.008,0.712,0.334,0.585,0.552,�k��,4.6,��
2022/09/27,12:10,0.565,0.815,0.526,1.009,0.711,0.335,0.586,0.552,�k��,3.9,��
2022/09/27,12:20,0.567,0.815,0.524,1.011,0.713,0.336,0.586,0.552,�k��,4.2,��
2022/09/27,12:30,0.569,0.817,0.525,1.007,0.713,0.335,0.586,0.552,�k��,3.9,��
2022/09/27,12:40,0.571,0.816,0.525,1.009,0.713,0.335,0.587,0.552,�k��,4.0,��
2022/09/27,12:50,0.570,0.817,0.524,1.009,0.712,0.336,0.585,0.553,�k�k��,4.6,��
2022/09/27,13:00,0.570,0.815,0.526,1.010,0.714,0.336,0.586,0.552,�k��,4.9,��
2022/09/27,13:10,0.571,0.816,0.524,1.009,0.711,0.336,0.587,0.555,�k�k��,4.4,��
2022/09/27,13:20,0.570,0.815,0.524,1.010,0.712,0.336,0.586,0.552,�k�k��,5.1,�L
2022/09/27,13:30,0.569,0.816,0.524,1.011,0.711,0.335,0.586,0.553,�k��,5.1,�L
2022/09/27,13:40,0.569,0.816,0.526,1.010,0.713,0.335,0.587,0.552,�k�k��,4.9,�L
2022/09/27,13:50,0.570,0.815,0.525,1.012,0.713,0.335,0.587,0.552,�k��,4.6,��
2022/09/27,14:00,0.572,0.816,0.526,1.011,0.712,0.335,0.586,0.553,�k��,4.7,��
2022/09/27,14:10,0.572,0.816,0.525,1.012,0.713,0.335,0.586,0.553,�k�k��,4.2,��
2022/09/27,14:20,0.574,0.816,0.525,1.010,0.713,0.335,0.586,0.553,�k�k��,4.3,��
2022/09/27,14:30,0.573,0.816,0.524,1.011,0.714,0.336,0.586,0.553,�k��,4.0,��
2022/09/27,14:40,0.572,0.815,0.525,1.011,0.713,0.337,0.586,0.553,�k�k��,3.8,��
2022/09/27,14:50,0.572,0.815,0.527,1.012,0.713,0.336,0.586,0.553,�k�k��,3.4,��
2022/09/27,15:00,0.572,0.816,0.526,1.014,0.714,0.336,0.588,0.552,�k�k��,3.1,��
2022/09/27,15:10,0.573,0.816,0.526,1.012,0.713,0.336,0.586,0.552,�k�k��,3.0,��
2022/09/27,15:20,0.573,0.817,0.526,1.011,0.714,0.336,0.587,0.553,�k��,3.0,��
2022/09/27,15:30,0.569,0.816,0.524,1.010,0.713,0.336,0.585,0.553,�k�k��,3.2,��
2022/09/27,15:40,0.568,0.816,0.526,1.010,0.714,0.335,0.585,0.553,�k�k��,3.0,��
2022/09/27,15:50,0.570,0.816,0.524,1.011,0.712,0.336,0.584,0.553,�k��,2.3,��
2022/09/27,16:00,0.570,0.815,0.525,1.009,0.714,0.337,0.586,0.554,�k,2.0,��
2022/09/27,16:10,0.571,0.817,0.524,1.012,0.712,0.335,0.585,0.552,�k�k��,2.3,��
2022/09/27,16:20,0.572,0.817,0.525,1.011,0.713,0.336,0.585,0.551,�k,2.0,��
2022/09/27,16:30,0.571,0.819,0.525,1.012,0.715,0.335,0.585,0.553,�k�k��,1.7,��
2022/09/27,16:40,0.572,0.818,0.525,1.013,0.714,0.336,0.587,0.551,�k,2.0,��
2022/09/27,16:50,0.569,0.818,0.526,1.013,0.714,0.336,0.586,0.554,�k�k��,2.5,��
2022/09/27,17:00,0.568,0.819,0.527,1.013,0.715,0.336,0.587,0.553,�k�k��,2.0,��
2022/09/27,17:10,0.570,0.820,0.528,1.012,0.716,0.338,0.587,0.554,�k,1.7,��
2022/09/27,17:20,0.571,0.820,0.528,1.014,0.715,0.335,0.587,0.553,�k,2.0,��
2022/09/27,17:30,0.569,0.819,0.526,1.012,0.714,0.337,0.586,0.556,�k,1.5,��
2022/09/27,17:40,0.571,0.821,0.528,1.013,0.715,0.336,0.586,0.554,�k�k��,2.0,��
2022/09/27,17:50,0.571,0.820,0.527,1.014,0.716,0.336,0.588,0.553,�k,2.8,��
2022/09/27,18:00,0.572,0.819,0.527,1.013,0.715,0.336,0.587,0.555,�k,2.2,��
2022/09/27,18:10,0.571,0.819,0.527,1.012,0.717,0.338,0.586,0.555,�k,1.9,��
2022/09/27,18:20,0.572,0.818,0.527,1.013,0.716,0.337,0.587,0.554,�k,3.2,��
2022/09/27,18:30,0.571,0.819,0.527,1.014,0.715,0.337,0.589,0.554,�k�k��,3.8,��
2022/09/27,18:40,0.571,0.819,0.530,1.012,0.716,0.337,0.588,0.553,�k,3.5,��
2022/09/27,18:50,0.570,0.819,0.527,1.011,0.717,0.338,0.588,0.555,�k,3.3,��
2022/09/27,19:00,0.570,0.820,0.528,1.012,0.717,0.338,0.588,0.554,�k,3.6,��
2022/09/27,19:10,0.570,0.819,0.526,1.014,0.717,0.338,0.589,0.555,�k,3.6,��
2022/09/27,19:20,0.570,0.820,0.528,1.012,0.714,0.338,0.588,0.554,�k,3.4,��
2022/09/27,19:30,0.570,0.820,0.527,1.012,0.715,0.336,0.589,0.554,�k,3.7,��
2022/09/27,19:40,0.570,0.818,0.527,1.013,0.715,0.340,0.589,0.554,�k,3.7,��
2022/09/27,19:50,0.571,0.816,0.527,1.015,0.717,0.338,0.589,0.554,�k,3.6,��
2022/09/27,20:00,0.571,0.817,0.527,1.012,0.716,0.337,0.589,0.554,�k,3.9,��
2022/09/27,20:10,0.571,0.818,0.526,1.013,0.717,0.338,0.588,0.555,�k,3.8,��
2022/09/27,20:20,0.571,0.821,0.528,1.012,0.715,0.338,0.587,0.555,�k,4.0,��
2022/09/27,20:30,0.569,0.821,0.528,1.011,0.716,0.337,0.589,0.555,�k,4.7,��
2022/09/27,20:40,0.571,0.819,0.525,1.013,0.716,0.339,0.588,0.553,�k�k��,4.4,��
2022/09/27,20:50,0.571,0.819,0.525,1.014,0.717,0.336,0.589,0.553,�k�k��,4.3,��
2022/09/27,21:00,0.570,0.820,0.526,1.011,0.715,0.338,0.590,0.555,�k�k��,4.1,��
2022/09/27,21:10,0.571,0.819,0.528,1.012,0.716,0.338,0.589,0.553,�k�k��,4.0,��
2022/09/27,21:20,0.570,0.819,0.529,1.011,0.719,0.338,0.588,0.553,�k�k��,4.4,��
2022/09/27,21:30,0.570,0.818,0.526,1.013,0.716,0.338,0.588,0.554,�k�k��,4.2,��
2022/09/27,21:40,0.571,0.820,0.528,1.013,0.716,0.337,0.588,0.554,�k�k��,4.0,��
2022/09/27,21:50,0.571,0.819,0.528,1.012,0.715,0.338,0.589,0.554,�k�k��,3.8,��
2022/09/27,22:00,0.572,0.818,0.526,1.015,0.715,0.337,0.588,0.554,�k�k��,3.7,��
2022/09/27,22:10,0.570,0.821,0.526,1.013,0.717,0.339,0.589,0.554,�k�k��,4.0,��
2022/09/27,22:20,0.571,0.819,0.528,1.014,0.717,0.339,0.587,0.553,�k�k��,3.5,��
2022/09/27,22:30,0.571,0.818,0.526,1.012,0.716,0.337,0.589,0.554,�k,3.3,��
2022/09/27,22:40,0.570,0.816,0.527,1.013,0.716,0.338,0.587,0.553,�k,3.0,��
2022/09/27,22:50,0.571,0.819,0.526,1.014,0.716,0.338,0.588,0.555,�k,3.1,��
2022/09/27,23:00,0.571,0.818,0.528,1.014,0.716,0.337,0.587,0.554,�k,2.6,��
2022/09/27,23:10,0.570,0.817,0.526,1.013,0.715,0.339,0.589,0.554,�k�k��,3.3,��
2022/09/27,23:20,0.571,0.818,0.527,1.013,0.717,0.338,0.588,0.555,�k,2.5,��
2022/09/27,23:30,0.570,0.817,0.526,1.013,0.715,0.337,0.588,0.554,�k�k��,2.3,��
2022/09/27,23:40,0.571,0.817,0.526,1.013,0.717,0.338,0.588,0.554,�k�k��,2.5,��
2022/09/27,23:50,0.570,0.817,0.529,1.015,0.718,0.337,0.587,0.554,�k,2.3,��
